"startDT [UTC]","vpos","CH4 [ppm]","stdev(CH4) [ppm]","CO2 [ppm]","stdev(CO2) [ppm]","H2O_reported [%]","stdev(H2O_reported)","CavityPressure [torr]","CavityTemp [C]","OutletValve","CH4_dry [ppm]","CO2_dry [ppm]","DasTemp [C]","EtalonTemp [C]","WarmBoxTemp [C]","MPVPosition","T_ECpre [C]","T_EC1 [C]","T_EC2 [C]","p_inlet [hPa]","p_in [hPa]","p_out [hPa]","T_inlet [C]","RH_inlet [%]","dwpt_inlet [C]","T_vent [C]","RH_vent [%]","dwpt_vent [C]","flow_vent [l min-1]","flow_inlet [l min-1]","dwpt_sample [C]","T_room [C]"
2013-07-24 00:00:00,0.0,1.85985,0.00031,382.356,0.118,0.8912,0.0136,139.999,45.000,31896.99174,1.87665,386.566,38.061,45.050,45.000,0.00,0.13,-272.53,-272.61,-30,587,-12,28.5,17.3,1.3,28.3,18.0,1.7,5.73,2.52,6.4,31.1
2013-07-24 00:01:00,0.0,1.85992,0.00058,382.511,0.321,0.8799,0.0226,140.003,45.000,31900.75261,1.87646,386.664,38.063,45.050,45.000,0.00,0.13,-272.53,-272.61,-30,587,-12,28.5,17.1,1.2,28.3,17.9,1.6,5.73,2.52,6.4,31.2
2013-07-24 00:02:00,0.0,1.86015,0.00050,382.194,0.304,0.9012,0.0242,139.998,45.000,31897.82523,1.87710,386.477,38.063,45.050,45.000,0.00,0.13,-272.54,-272.61,-30,587,-12,28.5,17.4,1.4,28.3,18.2,1.8,5.73,2.53,6.5,31.2
2013-07-24 00:03:00,0.0,1.86019,0.00049,382.482,0.199,0.8791,0.0181,139.998,45.000,31900.08215,1.87674,386.643,38.071,45.050,45.000,0.00,0.13,-272.54,-272.61,-30,587,-12,28.5,17.0,1.1,28.3,17.8,1.5,5.73,2.53,6.5,31.2
2013-07-24 00:04:00,0.0,1.85958,0.00046,382.264,0.153,0.8941,0.0066,140.002,45.000,31901.08022,1.87645,386.489,38.075,45.051,45.000,0.00,0.13,-272.53,-272.60,-30,587,-12,28.6,17.3,1.4,28.3,18.1,1.8,5.73,2.53,6.5,31.3
2013-07-24 00:05:00,0.0,1.86012,0.00034,382.349,0.143,0.8880,0.0136,140.002,45.000,31901.73315,1.87679,386.549,38.108,45.051,45.000,0.00,0.13,-272.53,-272.61,-30,587,-12,28.6,17.2,1.3,28.3,18.0,1.7,5.73,2.54,6.5,31.3
2013-07-24 00:06:00,0.0,1.86030,0.00040,382.532,0.065,0.8836,0.0074,140.003,45.000,31903.01893,1.87696,386.707,38.113,45.050,45.000,0.00,0.13,-272.54,-272.61,-30,587,-12,28.6,17.1,1.2,28.3,17.8,1.6,5.73,2.53,6.5,31.3
2013-07-24 00:07:00,0.0,1.86041,0.00048,382.425,0.170,0.8869,0.0144,140.000,45.000,31901.24847,1.87704,386.622,38.125,45.050,45.000,0.00,0.13,-272.53,-272.61,-30,587,-12,28.6,17.1,1.2,28.3,17.9,1.6,5.73,2.53,6.5,31.3
2013-07-24 00:08:00,0.0,1.86042,0.00034,382.433,0.191,0.8846,0.0135,139.998,45.000,31901.60022,1.87712,386.621,38.125,45.050,45.000,0.00,0.13,-272.53,-272.61,-30,587,-12,28.6,17.2,1.3,28.4,17.9,1.7,5.73,2.53,6.5,31.3
2013-07-24 00:09:00,0.0,1.86024,0.00042,382.268,0.142,0.8953,0.0115,140.004,45.000,31904.33778,1.87710,386.513,38.125,45.050,45.000,0.00,0.13,-272.53,-272.61,-30,587,-12,28.6,17.4,1.4,28.4,18.1,1.9,5.73,2.53,6.5,31.3
2013-07-24 00:10:00,0.0,1.86039,0.00030,382.409,0.123,0.8903,0.0102,139.998,45.000,31903.82524,1.87723,386.617,38.125,45.050,45.000,0.00,0.13,-272.54,-272.61,-30,587,-12,28.6,17.2,1.3,28.4,17.9,1.7,5.73,2.54,6.5,31.3
2013-07-24 00:11:00,0.0,1.86027,0.00046,382.431,0.104,0.8871,0.0105,140.002,45.000,31904.86324,1.87690,386.625,38.125,45.050,45.000,0.00,0.13,-272.54,-272.61,-30,587,-12,28.6,17.2,1.3,28.4,17.9,1.7,5.73,2.53,6.5,31.2
2013-07-24 00:12:00,0.0,1.85997,0.00035,382.218,0.177,0.9031,0.0122,139.994,45.000,31902.27357,1.87701,386.489,38.137,45.050,45.000,0.00,0.13,-272.53,-272.61,-30,587,-12,28.6,17.4,1.5,28.4,18.2,1.9,5.73,2.54,6.5,31.2
2013-07-24 00:13:00,0.0,1.86005,0.00051,382.517,0.189,0.8776,0.0073,140.001,45.000,31903.96735,1.87657,386.671,38.132,45.050,45.000,0.00,0.13,-272.54,-272.61,-30,587,-12,28.7,17.0,1.2,28.4,17.7,1.5,5.73,2.53,6.5,31.2
2013-07-24 00:14:00,0.0,1.86054,0.00046,382.312,0.177,0.8947,0.0109,139.998,45.000,31903.67188,1.87729,386.556,38.145,45.050,45.000,0.00,0.13,-272.54,-272.61,-30,587,-12,28.6,17.3,1.4,28.4,18.0,1.8,5.73,2.53,6.5,31.3
2013-07-24 00:15:00,0.0,1.86032,0.00063,382.236,0.246,0.8959,0.0161,140.004,45.000,31904.86007,1.87731,386.471,38.165,45.050,45.000,0.00,0.13,-272.54,-272.61,-30,587,-12,28.7,17.3,1.4,28.4,18.1,1.8,5.73,2.53,6.6,31.2
2013-07-24 00:16:00,0.0,1.86009,0.00056,382.339,0.162,0.8903,0.0075,140.004,45.000,31906.01540,1.87684,386.544,38.176,45.050,45.000,0.00,0.13,-272.54,-272.61,-30,587,-12,28.7,17.2,1.4,28.4,17.9,1.8,5.73,2.53,6.6,31.4
2013-07-24 00:17:00,0.0,1.86007,0.00034,382.373,0.061,0.8896,0.0063,140.000,45.000,31907.23967,1.87684,386.586,38.183,45.050,45.000,0.00,0.13,-272.53,-272.60,-30,587,-12,28.7,17.1,1.3,28.4,17.9,1.7,5.73,2.52,6.6,31.5
2013-07-24 00:18:00,0.0,1.85984,0.00040,382.313,0.076,0.8879,0.0067,140.006,45.000,31909.59916,1.87656,386.514,38.188,45.050,45.000,0.00,0.13,-272.53,-272.61,-30,587,-12,28.7,17.1,1.3,28.5,17.9,1.7,5.73,2.52,6.6,31.3
2013-07-24 00:19:00,0.0,1.86043,0.00021,382.509,0.075,0.8786,0.0062,139.998,45.000,31907.31828,1.87694,386.658,38.188,45.050,45.000,0.00,0.13,-272.54,-272.61,-30,588,-12,28.7,16.9,1.1,28.5,17.6,1.5,5.73,2.52,6.6,31.6
2013-07-24 00:20:00,0.0,1.85987,0.00065,382.240,0.326,0.8934,0.0263,139.999,45.000,31907.16865,1.87670,386.465,38.188,45.050,45.000,0.00,0.13,-272.53,-272.61,-30,588,-12,28.7,17.1,1.3,28.5,17.9,1.7,5.73,2.52,6.6,31.5
2013-07-24 00:21:00,0.0,1.86030,0.00055,382.331,0.245,0.8862,0.0152,140.000,45.000,31909.18604,1.87696,386.538,38.195,45.050,45.000,0.00,0.13,-272.53,-272.61,-30,588,-12,28.7,17.1,1.3,28.5,17.8,1.7,5.73,2.52,6.6,31.4
2013-07-24 00:22:00,0.0,1.86013,0.00035,382.272,0.151,0.8908,0.0167,140.002,45.000,31910.61427,1.87691,386.475,38.205,45.050,45.000,0.00,0.13,-272.53,-272.61,-30,588,-12,28.7,17.0,1.3,28.5,17.8,1.7,5.73,2.52,6.6,31.6
2013-07-24 00:23:00,0.0,1.86015,0.00046,382.407,0.196,0.8821,0.0166,139.996,45.000,31910.90909,1.87680,386.583,38.224,45.051,45.000,0.00,0.13,-272.53,-272.61,-30,588,-12,28.7,16.9,1.2,28.5,17.6,1.5,5.73,2.52,6.6,31.4
2013-07-24 00:24:00,0.0,1.85988,0.00030,382.438,0.223,0.8829,0.0178,140.004,45.000,31914.41873,1.87650,386.614,38.243,45.050,45.000,0.00,0.13,-272.53,-272.61,-30,588,-12,28.7,16.9,1.2,28.5,17.7,1.6,5.73,2.52,6.6,31.4
2013-07-24 00:25:00,0.0,1.85954,0.00029,382.037,0.167,0.9098,0.0109,139.997,45.000,31911.54591,1.87672,386.351,38.250,45.050,45.000,0.00,0.13,-272.54,-272.61,-30,588,-12,28.7,17.5,1.7,28.5,18.3,2.1,5.73,2.52,6.6,31.5
2013-07-24 00:26:00,0.0,1.85922,0.00019,382.056,0.139,0.9019,0.0108,140.002,45.000,31915.75614,1.87620,386.316,38.250,45.050,45.000,0.00,0.13,-272.54,-272.61,-30,588,-12,28.7,17.4,1.6,28.5,18.2,2.0,5.73,2.52,6.7,31.5
2013-07-24 00:27:00,0.0,1.85956,0.00013,382.154,0.235,0.9063,0.0167,140.000,45.000,31914.74042,1.87660,386.443,38.245,45.050,45.000,0.00,0.13,-272.53,-272.61,-30,588,-12,28.8,17.4,1.6,28.5,18.2,2.0,5.73,2.52,6.6,31.5
2013-07-24 00:28:00,0.0,1.85974,0.00034,382.432,0.184,0.8830,0.0159,140.004,45.000,31919.16143,1.87641,386.594,38.250,45.050,45.000,0.00,0.13,-272.53,-272.61,-30,588,-12,28.8,16.9,1.2,28.5,17.7,1.6,5.73,2.52,6.7,31.4
2013-07-24 00:29:00,0.0,1.86002,0.00032,382.569,0.042,0.8702,0.0035,139.997,45.000,31917.75230,1.87636,386.690,38.253,45.050,45.000,0.00,0.13,-272.54,-272.61,-30,588,-12,28.8,16.6,1.0,28.5,17.4,1.4,5.73,2.52,6.7,31.4
2013-07-24 00:30:00,0.0,1.85962,0.00050,382.500,0.116,0.8782,0.0088,139.998,45.000,31918.80918,1.87619,386.652,38.272,45.050,45.000,0.00,0.13,-272.53,-272.60,-30,588,-12,28.8,16.8,1.1,28.5,17.5,1.5,5.73,2.52,6.7,31.4
2013-07-24 00:31:00,0.0,1.85961,0.00034,382.648,0.077,0.8666,0.0065,140.000,45.000,31919.26626,1.87593,386.745,38.270,45.050,45.000,0.00,0.13,-272.53,-272.61,-30,588,-12,28.8,16.5,0.9,28.5,17.3,1.3,5.73,2.52,6.7,31.6
2013-07-24 00:32:00,0.0,1.85999,0.00053,382.513,0.153,0.8779,0.0130,140.002,45.000,31919.44864,1.87646,386.669,38.298,45.050,45.000,0.00,0.13,-272.53,-272.61,-30,588,-12,28.8,16.8,1.1,28.6,17.5,1.5,5.73,2.52,6.7,31.6
2013-07-24 00:33:00,0.0,1.85991,0.00047,382.436,0.200,0.8834,0.0154,139.998,45.000,31919.65209,1.87652,386.608,38.310,45.050,45.000,0.00,0.13,-272.53,-272.61,-30,588,-12,28.8,16.9,1.2,28.6,17.6,1.6,5.73,2.52,6.7,31.7
2013-07-24 00:34:00,0.0,1.86000,0.00029,382.586,0.088,0.8730,0.0070,140.000,45.000,31920.60909,1.87643,386.720,38.311,45.050,45.000,0.00,0.13,-272.53,-272.61,-30,588,-12,28.8,16.6,1.0,28.6,17.3,1.4,5.73,2.52,6.7,31.6
2013-07-24 00:35:00,0.0,1.86025,0.00029,382.695,0.063,0.8636,0.0063,140.002,45.000,31921.81911,1.87649,386.779,38.313,45.050,45.000,0.00,0.13,-272.53,-272.61,-30,588,-12,28.8,16.5,0.9,28.6,17.2,1.3,5.73,2.52,6.7,31.7
2013-07-24 00:36:00,0.0,1.85968,0.00039,382.619,0.186,0.8740,0.0195,140.000,45.000,31921.83764,1.87623,386.759,38.315,45.050,45.000,0.00,0.13,-272.54,-272.61,-30,588,-12,28.8,16.7,1.1,28.6,17.4,1.5,5.73,2.52,6.7,31.6
2013-07-24 00:37:00,0.0,1.86029,0.00049,382.715,0.138,0.8654,0.0096,140.000,45.000,31920.90749,1.87647,386.802,38.332,45.050,45.000,0.00,0.13,-272.53,-272.60,-30,588,-12,28.8,16.5,0.9,28.6,17.2,1.3,5.73,2.53,6.7,31.6
2013-07-24 00:38:00,0.0,1.86011,0.00038,382.510,0.171,0.8843,0.0148,139.997,45.000,31919.50151,1.87675,386.706,38.355,45.050,45.000,0.00,0.13,-272.53,-272.61,-30,588,-12,28.8,16.9,1.2,28.6,17.6,1.6,5.73,2.52,6.7,31.6
2013-07-24 00:39:00,0.0,1.86046,0.00030,382.643,0.215,0.8701,0.0192,140.001,45.000,31921.96128,1.87685,386.751,38.341,45.050,45.000,0.00,0.13,-272.53,-272.61,-31,588,-12,28.9,16.5,0.9,28.6,17.3,1.4,5.73,2.52,6.7,31.7
2013-07-24 00:40:00,0.0,1.86075,0.00041,382.764,0.066,0.8656,0.0106,140.002,45.000,31920.91440,1.87695,386.858,38.360,45.050,45.000,0.00,0.13,-272.53,-272.61,-31,588,-12,28.9,16.4,0.9,28.6,17.1,1.3,5.73,2.52,6.7,31.7
2013-07-24 00:41:00,0.0,1.86030,0.00043,382.598,0.078,0.8805,0.0099,140.002,45.000,31923.19931,1.87697,386.771,38.373,45.050,45.000,0.00,0.13,-272.53,-272.60,-31,588,-12,28.9,16.7,1.1,28.6,17.4,1.5,5.73,2.52,6.8,31.6
2013-07-24 00:42:00,0.0,1.86016,0.00046,382.582,0.081,0.8855,0.0108,139.999,45.001,31925.50911,1.87678,386.768,38.373,45.050,45.000,0.00,0.13,-272.53,-272.61,-30,588,-12,28.9,16.8,1.2,28.7,17.6,1.6,5.73,2.52,6.8,31.5
2013-07-24 00:43:00,0.0,1.86001,0.00037,382.663,0.117,0.8800,0.0078,140.002,45.000,31927.15650,1.87665,386.832,38.375,45.050,45.000,0.00,0.13,-272.53,-272.61,-30,588,-12,28.9,16.7,1.1,28.7,17.4,1.5,5.73,2.52,6.8,31.5
2013-07-24 00:44:00,0.0,1.86006,0.00050,382.703,0.047,0.8709,0.0049,140.001,45.000,31928.71636,1.87647,386.821,38.375,45.050,45.000,0.00,0.13,-272.54,-272.60,-30,588,-12,28.9,16.5,1.0,28.7,17.3,1.4,5.73,2.52,6.8,31.5
2013-07-24 00:45:00,0.0,1.86047,0.00035,382.651,0.086,0.8763,0.0112,139.996,45.001,31928.07003,1.87688,386.798,38.375,45.050,45.000,0.00,0.13,-272.53,-272.61,-30,588,-12,28.9,16.6,1.1,28.7,17.3,1.5,5.73,2.52,6.8,31.5
2013-07-24 00:46:00,0.0,1.85981,0.00057,382.437,0.148,0.8909,0.0116,139.999,45.000,31929.38861,1.87658,386.654,38.375,45.050,45.000,0.00,0.13,-272.53,-272.61,-30,588,-12,28.9,17.0,1.4,28.7,17.7,1.8,5.73,2.52,6.8,31.6
2013-07-24 00:47:00,0.0,1.86019,0.00028,382.550,0.163,0.8800,0.0104,140.005,45.000,31930.92125,1.87679,386.729,38.381,45.050,45.000,0.00,0.13,-272.53,-272.60,-30,588,-12,28.9,16.8,1.2,28.7,17.5,1.6,5.73,2.53,6.8,31.6
2013-07-24 00:48:00,0.0,1.86028,0.00046,382.458,0.178,0.8863,0.0137,140.001,45.000,31931.04249,1.87694,386.647,38.429,45.050,45.000,0.00,0.13,-272.53,-272.61,-31,588,-12,28.9,16.8,1.2,28.7,17.5,1.6,5.73,2.52,6.8,31.5
2013-07-24 00:49:00,0.0,1.86015,0.00053,382.296,0.189,0.9002,0.0129,140.001,45.000,31930.55042,1.87709,386.557,38.436,45.050,45.000,0.00,0.13,-272.54,-272.61,-30,588,-12,28.9,17.1,1.5,28.7,17.8,1.9,5.73,2.52,6.8,31.5
2013-07-24 00:50:00,0.0,1.86036,0.00041,382.537,0.128,0.8802,0.0089,139.996,45.000,31930.28889,1.87698,386.698,38.438,45.050,45.000,0.00,0.13,-272.53,-272.61,-31,588,-12,28.9,16.6,1.1,28.7,17.4,1.6,5.73,2.52,6.8,31.5
2013-07-24 00:51:00,0.0,1.86005,0.00035,382.660,0.138,0.8700,0.0091,140.000,45.000,31928.95867,1.87646,386.766,38.438,45.050,45.000,0.00,0.13,-272.53,-272.61,-31,589,-12,28.9,16.4,1.0,28.7,17.2,1.4,5.73,2.53,6.8,31.6
2013-07-24 00:52:00,0.0,1.85990,0.00035,382.491,0.213,0.8859,0.0145,139.999,45.000,31930.48521,1.87652,386.688,38.438,45.050,45.000,0.00,0.13,-272.53,-272.61,-31,588,-12,28.9,16.8,1.3,28.7,17.5,1.7,5.73,2.52,6.8,31.6
2013-07-24 00:53:00,0.0,1.86012,0.00018,382.344,0.164,0.8949,0.0119,139.997,45.000,31930.91894,1.87702,386.583,38.438,45.050,45.000,0.00,0.13,-272.54,-272.61,-31,589,-12,29.0,16.9,1.3,28.7,17.6,1.8,5.73,2.52,6.8,31.4
2013-07-24 00:54:00,0.0,1.86034,0.00034,382.482,0.120,0.8848,0.0067,139.999,45.000,31932.33004,1.87691,386.675,38.447,45.050,45.000,0.00,0.13,-272.53,-272.61,-31,589,-12,29.0,16.7,1.2,28.7,17.5,1.6,5.73,2.52,6.9,31.4
2013-07-24 00:55:00,0.0,1.86031,0.00034,382.557,0.080,0.8823,0.0126,139.995,45.000,31933.00827,1.87697,386.722,38.453,45.050,45.000,0.00,0.13,-272.53,-272.60,-31,589,-12,29.0,16.7,1.2,28.7,17.4,1.6,5.73,2.52,6.9,31.5
2013-07-24 00:56:00,0.0,1.85995,0.00044,382.607,0.050,0.8758,0.0090,139.998,45.000,31933.34038,1.87646,386.751,38.469,45.050,45.000,0.00,0.13,-272.54,-272.61,-31,589,-12,29.0,16.5,1.1,28.7,17.3,1.5,5.73,2.52,6.9,31.6
2013-07-24 00:57:00,0.0,1.85965,0.00039,382.429,0.094,0.8911,0.0089,140.000,45.000,31934.18537,1.87644,386.647,38.500,45.050,45.000,0.00,0.13,-272.53,-272.61,-31,589,-12,29.0,16.8,1.3,28.8,17.5,1.7,5.73,2.52,6.9,31.7
2013-07-24 00:58:00,0.0,1.86000,0.00048,382.583,0.055,0.8758,0.0069,139.998,45.000,31933.73702,1.87655,386.727,38.500,45.050,45.000,0.00,0.13,-272.53,-272.60,-31,589,-12,29.0,16.5,1.1,28.8,17.3,1.5,5.73,2.52,6.9,31.7
2013-07-24 00:59:00,0.0,1.86014,0.00029,382.531,0.061,0.8751,0.0059,140.001,45.000,31935.83093,1.87651,386.672,38.500,45.050,45.000,0.00,0.13,-272.53,-272.61,-31,589,-12,29.0,16.5,1.0,28.8,17.2,1.5,5.73,2.52,6.9,31.7
2013-07-24 01:00:00,0.0,1.85980,0.00058,382.478,0.129,0.8833,0.0107,139.999,45.000,31937.12150,1.87641,386.653,38.501,45.050,45.000,0.00,0.13,-272.53,-272.61,-31,589,-12,29.0,16.7,1.2,28.8,17.4,1.6,5.73,2.52,6.9,31.6
2013-07-24 01:01:00,0.0,1.85954,0.00069,382.311,0.156,0.8943,0.0130,139.997,45.001,31937.78146,1.87637,386.547,38.506,45.050,45.000,0.00,0.13,-272.53,-272.61,-31,589,-12,29.0,16.8,1.3,28.8,17.5,1.7,5.73,2.52,6.9,31.7
2013-07-24 01:02:00,0.0,1.86033,0.00041,382.319,0.150,0.9007,0.0128,140.002,45.001,31939.48298,1.87729,386.587,38.521,45.050,45.000,0.00,0.13,-272.53,-272.61,-31,589,-12,29.1,17.0,1.5,28.8,17.7,1.9,5.73,2.52,6.9,31.7
2013-07-24 01:03:00,0.0,1.86019,0.00047,382.252,0.099,0.9106,0.0077,139.998,45.000,31937.26625,1.87735,386.557,38.537,45.050,45.000,0.00,0.13,-272.53,-272.61,-31,589,-12,29.1,17.1,1.6,28.8,17.9,2.0,5.73,2.52,6.9,31.8
2013-07-24 01:04:00,0.0,1.86072,0.00075,382.559,0.140,0.8873,0.0125,140.002,45.000,31938.00338,1.87731,386.747,38.559,45.050,45.000,0.00,0.13,-272.53,-272.61,-31,589,-12,29.1,16.6,1.2,28.8,17.4,1.6,5.73,2.52,6.9,31.7
2013-07-24 01:05:00,0.0,1.86021,0.00063,382.487,0.197,0.8945,0.0203,140.001,45.000,31941.21183,1.87714,386.725,38.563,45.050,45.000,0.00,0.13,-272.53,-272.61,-31,589,-12,29.1,16.8,1.3,28.8,17.5,1.7,5.73,2.52,6.9,31.7
2013-07-24 01:06:00,0.0,1.86059,0.00056,382.636,0.132,0.8822,0.0090,140.003,45.000,31942.74243,1.87726,386.822,38.563,45.050,45.000,0.00,0.13,-272.53,-272.61,-31,589,-12,29.1,16.6,1.2,28.8,17.3,1.6,5.73,2.52,6.9,31.8
2013-07-24 01:07:00,0.0,1.86039,0.00065,382.532,0.108,0.8901,0.0159,140.002,45.000,31941.73899,1.87720,386.742,38.563,45.050,45.000,0.00,0.13,-272.53,-272.61,-31,589,-12,29.1,16.7,1.3,28.9,17.5,1.7,5.73,2.52,6.9,31.7
2013-07-24 01:08:00,0.0,1.85995,0.00044,382.518,0.119,0.8868,0.0203,139.996,45.000,31939.98158,1.87667,386.717,38.563,45.050,45.000,0.00,0.13,-272.53,-272.60,-31,589,-12,29.1,16.6,1.2,28.9,17.4,1.6,5.73,2.52,7.0,31.9
2013-07-24 01:09:00,0.0,1.85999,0.00048,382.549,0.102,0.8815,0.0091,140.000,45.000,31941.52678,1.87659,386.710,38.568,45.050,45.000,0.00,0.13,-272.53,-272.60,-31,589,-12,29.1,16.5,1.2,28.9,17.3,1.6,5.73,2.53,7.0,31.8
2013-07-24 01:10:00,0.0,1.85985,0.00044,382.553,0.101,0.8860,0.0107,140.004,45.000,31944.78848,1.87645,386.745,38.569,45.050,45.000,0.00,0.13,-272.53,-272.61,-31,589,-12,29.1,16.6,1.2,28.9,17.3,1.6,5.73,2.52,7.0,31.8
2013-07-24 01:11:00,0.0,1.86034,0.00058,382.587,0.074,0.8807,0.0067,139.992,45.000,31941.26761,1.87694,386.753,38.575,45.050,45.000,0.00,0.13,-272.53,-272.61,-31,589,-12,29.1,16.5,1.2,28.9,17.3,1.6,5.73,2.52,7.0,31.9
2013-07-24 01:12:00,0.0,1.86056,0.00047,382.707,0.138,0.8769,0.0175,140.000,45.000,31943.27539,1.87702,386.857,38.586,45.050,45.000,0.00,0.13,-272.53,-272.60,-31,589,-12,29.1,16.4,1.0,28.9,17.1,1.5,5.73,2.52,7.0,32.0
2013-07-24 01:13:00,0.0,1.86017,0.00041,382.551,0.131,0.8898,0.0133,140.003,45.000,31947.01813,1.87696,386.761,38.594,45.050,45.000,0.00,0.13,-272.53,-272.61,-31,589,-12,29.1,16.7,1.4,28.9,17.4,1.7,5.73,2.52,7.0,32.0
2013-07-24 01:14:00,0.0,1.86016,0.00046,382.516,0.113,0.8966,0.0100,139.999,45.001,31945.54073,1.87706,386.763,38.615,45.050,45.000,0.00,0.13,-272.53,-272.61,-31,589,-12,29.1,16.8,1.4,28.9,17.5,1.8,5.73,2.52,7.0,32.0
2013-07-24 01:15:00,0.0,1.86020,0.00037,382.656,0.069,0.8848,0.0084,140.002,45.000,31947.60792,1.87682,386.842,38.620,45.050,45.000,0.00,0.13,-272.53,-272.61,-31,589,-12,29.1,16.5,1.2,28.9,17.2,1.6,5.73,2.53,7.0,32.0
2013-07-24 01:16:00,0.0,1.86063,0.00042,382.615,0.113,0.8900,0.0187,140.002,45.000,31947.00347,1.87736,386.830,38.625,45.050,45.000,0.00,0.13,-272.53,-272.60,-31,589,-12,29.2,16.6,1.3,28.9,17.3,1.6,5.73,2.53,7.0,32.0
2013-07-24 01:17:00,0.0,1.86045,0.00029,382.612,0.110,0.8925,0.0136,139.999,45.000,31947.51398,1.87734,386.831,38.625,45.050,45.000,0.00,0.13,-272.53,-272.61,-31,589,-12,29.2,16.7,1.3,28.9,17.4,1.8,5.73,2.53,7.0,31.9
2013-07-24 01:18:00,0.0,1.86069,0.00052,382.661,0.164,0.8969,0.0168,140.001,45.000,31946.45854,1.87747,386.915,38.627,45.050,45.000,0.00,0.13,-272.53,-272.60,-31,589,-12,29.2,16.7,1.4,28.9,17.4,1.8,5.73,2.52,7.0,31.8
2013-07-24 01:19:00,0.0,1.86080,0.00015,382.510,0.056,0.8987,0.0071,139.996,45.000,31946.12667,1.87774,386.767,38.635,45.050,45.000,0.00,0.13,-272.53,-272.61,-31,589,-12,29.2,16.8,1.5,29.0,17.6,1.9,5.73,2.53,7.0,32.0
2013-07-24 01:20:00,0.0,1.86035,0.00057,382.313,0.096,0.9141,0.0122,140.000,45.000,31947.18913,1.87759,386.650,38.643,45.050,45.000,0.00,0.13,-272.53,-272.61,-31,589,-12,29.2,17.1,1.7,29.0,17.8,2.1,5.73,2.53,7.1,32.1
2013-07-24 01:21:00,0.0,1.86074,0.00044,382.443,0.125,0.9018,0.0158,140.001,45.000,31947.89554,1.87777,386.707,38.648,45.050,45.000,0.00,0.13,-272.53,-272.61,-31,589,-12,29.2,16.8,1.4,29.0,17.5,1.9,5.73,2.52,7.1,32.0
2013-07-24 01:22:00,0.0,1.86048,0.00040,382.468,0.039,0.8979,0.0086,139.997,45.001,31949.99684,1.87743,386.717,38.669,45.050,45.000,0.00,0.13,-272.53,-272.60,-31,589,-12,29.2,16.7,1.4,29.0,17.5,1.8,5.73,2.52,7.1,31.9
2013-07-24 01:23:00,0.0,1.85997,0.00031,382.354,0.106,0.9116,0.0140,140.003,45.000,31953.35145,1.87713,386.668,38.667,45.050,45.000,0.00,0.13,-272.53,-272.61,-31,589,-12,29.2,16.9,1.6,29.0,17.7,2.0,5.73,2.52,7.1,32.1
2013-07-24 01:24:00,0.0,1.86001,0.00052,382.371,0.085,0.9076,0.0111,139.996,45.000,31952.48931,1.87709,386.668,38.688,45.050,45.000,0.00,0.13,-272.53,-272.61,-31,589,-12,29.2,16.9,1.6,29.0,17.7,2.0,5.73,2.52,7.1,32.0
2013-07-24 01:25:00,0.0,1.85995,0.00043,382.326,0.067,0.9070,0.0047,139.999,45.000,31953.96321,1.87709,386.628,38.688,45.050,45.000,0.00,0.13,-272.53,-272.61,-31,589,-13,29.3,16.9,1.6,29.0,17.7,2.0,5.73,2.52,7.1,31.9
2013-07-24 01:26:00,0.0,1.86057,0.00058,382.356,0.089,0.9048,0.0107,139.999,45.000,31953.09992,1.87762,386.642,38.688,45.050,45.000,0.00,0.13,-272.53,-272.61,-31,589,-13,29.3,16.8,1.5,29.0,17.5,1.9,5.73,2.52,7.1,31.9
2013-07-24 01:27:00,0.0,1.86008,0.00031,382.289,0.113,0.9085,0.0129,140.001,45.000,31954.97142,1.87713,386.586,38.698,45.050,45.000,0.00,0.13,-272.53,-272.61,-31,589,-13,29.3,16.9,1.6,29.0,17.7,2.1,5.73,2.52,7.1,32.0
2013-07-24 01:28:00,0.0,1.86040,0.00030,382.402,0.092,0.9030,0.0117,139.999,45.000,31955.16972,1.87746,386.671,38.713,45.050,45.000,0.00,0.13,-272.53,-272.60,-31,589,-13,29.3,16.8,1.5,29.1,17.5,1.9,5.73,2.52,7.1,32.1
2013-07-24 01:29:00,0.0,1.86057,0.00067,382.432,0.082,0.8980,0.0093,140.002,45.000,31956.26642,1.87749,386.684,38.726,45.050,45.000,0.00,0.13,-272.53,-272.60,-31,589,-13,29.3,16.7,1.5,29.0,17.4,1.9,5.73,2.51,7.1,32.1
2013-07-24 01:30:00,0.0,1.86037,0.00054,382.231,0.115,0.9146,0.0074,139.998,45.000,31956.89247,1.87754,386.557,38.750,45.050,45.000,0.00,0.13,-272.53,-272.61,-31,590,-13,29.3,17.0,1.7,29.1,17.7,2.1,5.73,2.52,7.1,32.0
2013-07-24 01:31:00,0.0,1.86001,0.00026,382.284,0.099,0.9132,0.0111,140.005,45.000,31961.21721,1.87728,386.610,38.747,45.050,45.000,0.00,0.13,-272.53,-272.61,-31,590,-13,29.3,16.9,1.7,29.1,17.7,2.1,5.73,2.51,7.2,31.9
2013-07-24 01:32:00,0.0,1.86013,0.00034,382.302,0.099,0.9083,0.0126,139.996,45.000,31958.41976,1.87727,386.605,38.750,45.050,45.000,0.00,0.13,-272.53,-272.61,-31,590,-13,29.3,16.8,1.6,29.1,17.6,2.0,5.73,2.51,7.1,32.1
2013-07-24 01:33:00,0.0,1.85965,0.00023,382.108,0.110,0.9205,0.0095,140.002,45.000,31960.12751,1.87698,386.474,38.750,45.050,45.000,0.00,0.13,-272.53,-272.61,-31,590,-13,29.3,17.1,1.8,29.1,17.8,2.2,5.73,2.51,7.2,32.0
2013-07-24 01:34:00,0.0,1.85972,0.00021,382.085,0.062,0.9250,0.0059,140.003,45.000,31961.09899,1.87717,386.452,38.750,45.050,45.000,0.00,0.13,-272.53,-272.60,-31,590,-13,29.3,17.2,1.9,29.1,18.0,2.3,5.73,2.51,7.2,32.0
2013-07-24 01:35:00,0.0,1.85996,0.00039,382.159,0.104,0.9217,0.0105,140.003,45.000,31962.51096,1.87733,386.522,38.750,45.050,45.000,0.00,0.13,-272.53,-272.61,-31,590,-13,29.3,17.1,1.8,29.1,17.8,2.2,5.73,2.51,7.2,31.9
2013-07-24 01:36:00,0.0,1.85943,0.00048,382.019,0.119,0.9304,0.0151,140.002,45.000,31960.75815,1.87696,386.431,38.753,45.050,45.000,0.00,0.13,-272.53,-272.60,-31,590,-13,29.3,17.2,1.9,29.1,18.0,2.3,5.73,2.51,7.2,31.9
2013-07-24 01:37:00,0.0,1.85972,0.00051,382.118,0.215,0.9215,0.0240,140.000,45.000,31959.94514,1.87709,386.477,38.754,45.050,45.000,0.00,0.13,-272.53,-272.61,-31,590,-13,29.4,17.2,1.9,29.1,17.9,2.3,5.73,2.51,7.2,31.9
2013-07-24 01:38:00,0.0,1.85942,0.00034,381.952,0.151,0.9352,0.0135,140.004,45.000,31963.17351,1.87705,386.376,38.785,45.050,45.000,0.00,0.13,-272.53,-272.60,-31,590,-13,29.4,17.3,2.0,29.1,18.1,2.4,5.73,2.52,7.2,32.0
2013-07-24 01:39:00,0.0,1.85998,0.00058,382.379,0.132,0.9052,0.0120,139.999,45.000,31960.48748,1.87697,386.651,38.813,45.050,45.000,0.00,0.13,-272.53,-272.60,-31,590,-13,29.4,16.8,1.6,29.1,17.5,2.0,5.73,2.51,7.2,32.0
2013-07-24 01:40:00,0.0,1.85990,0.00037,382.436,0.140,0.9000,0.0127,140.001,45.000,31963.33473,1.87694,386.698,38.812,45.050,45.000,0.00,0.13,-272.53,-272.60,-31,590,-13,29.4,16.6,1.4,29.1,17.3,1.8,5.73,2.51,7.2,32.0
2013-07-24 01:41:00,0.0,1.85969,0.00050,382.401,0.128,0.9050,0.0120,140.002,45.000,31967.53392,1.87675,386.684,38.813,45.050,45.000,0.00,0.13,-272.53,-272.61,-31,590,-13,29.4,16.7,1.5,29.1,17.4,1.9,5.73,2.52,7.2,32.1
2013-07-24 01:42:00,0.0,1.85964,0.00036,382.251,0.120,0.9163,0.0113,140.002,45.000,31966.10000,1.87688,386.603,38.813,45.050,45.000,0.00,0.13,-272.53,-272.60,-31,590,-13,29.4,16.9,1.7,29.1,17.7,2.1,5.73,2.52,7.2,32.1
2013-07-24 01:43:00,0.0,1.85989,0.00046,382.176,0.094,0.9193,0.0098,140.001,45.000,31967.55360,1.87715,386.517,38.813,45.050,45.000,0.00,0.13,-272.54,-272.61,-31,590,-13,29.4,17.0,1.8,29.1,17.8,2.2,5.73,2.52,7.3,32.1
2013-07-24 01:44:00,0.0,1.86056,0.00041,382.498,0.070,0.8908,0.0093,139.993,45.000,31965.21428,1.87735,386.710,38.813,45.050,45.000,0.00,0.13,-272.53,-272.61,-31,590,-13,29.4,16.4,1.3,29.2,17.2,1.7,5.73,2.52,7.3,32.2
2013-07-24 01:45:00,0.0,1.85977,0.00059,382.262,0.170,0.9127,0.0117,139.999,45.000,31966.91979,1.87697,386.581,38.825,45.050,45.000,0.00,0.13,-272.53,-272.60,-31,590,-13,29.4,16.8,1.7,29.2,17.6,2.1,5.73,2.53,7.3,32.3
2013-07-24 01:46:00,0.0,1.86000,0.00054,382.381,0.115,0.9035,0.0112,140.003,45.000,31968.64285,1.87707,386.670,38.836,45.050,45.000,0.00,0.13,-272.53,-272.61,-31,590,-13,29.4,16.6,1.5,29.2,17.3,1.9,5.73,2.52,7.3,32.1
2013-07-24 01:47:00,0.0,1.86004,0.00032,382.100,0.144,0.9252,0.0130,140.002,45.000,31968.96154,1.87744,386.478,38.873,45.050,45.000,0.00,0.13,-272.53,-272.61,-31,590,-13,29.4,17.1,1.9,29.2,17.8,2.3,5.73,2.52,7.3,32.3